| time (UTC) | temp F | wind direction | speed MPH | gust MPH | rain 1hr in | rain 24hr in | rain mn in | humidity % | barometer mb |
| 20260903135628 | 74 | 180 | 0.0 | 0.0 | 0.00 | 0.34 | 0.03 | 94 | 1030.3 |
| 20260903134626 | 73 | 180 | 0.0 | 0.0 | 0.00 | 0.34 | 0.03 | 94 | 1030.6 |
| 20260903132627 | 73 | 202 | 0.0 | 0.0 | 0.00 | 0.34 | 0.03 | 94 | 1031.0 |
| 20260903131626 | 74 | 180 | 0.0 | 0.0 | 0.00 | 0.34 | 0.03 | 94 | 1031.0 |
| 20260903130627 | 74 | 225 | 0.0 | 0.0 | 0.00 | 0.34 | 0.03 | 95 | 1031.2 |
| 20260903125724 | 74 | 225 | 0.0 | 0.0 | 0.00 | 0.34 | 0.03 | 95 | 1031.0 |
| 20260903124726 | 73 | 292 | 0.0 | 0.0 | 0.00 | 0.34 | 0.03 | 95 | 1031.4 |
| 20260903122727 | 73 | 337 | 0.0 | 1.0 | 0.00 | 0.34 | 0.03 | 95 | 1031.5 |
| 20260903121725 | 73 | 180 | 0.0 | 0.0 | 0.00 | 0.34 | 0.03 | 95 | 1031.6 |
| 20260903114725 | 72 | 180 | 0.0 | 0.0 | 0.00 | 0.34 | 0.03 | 95 | 1031.5 |
| 20260903113725 | 72 | 180 | 0.0 | 0.0 | 0.00 | 0.34 | 0.03 | 95 | 1031.6 |
| 20260903112727 | 72 | 180 | 0.0 | 0.0 | 0.00 | 0.34 | 0.03 | 95 | 1031.5 |
| 20260903110725 | 72 | 180 | 0.0 | 0.0 | 0.00 | 0.34 | 0.03 | 95 | 1031.8 |
| 20260903105728 | 72 | 180 | 0.0 | 0.0 | 0.00 | 0.34 | 0.03 | 95 | 1031.8 |
| 20260903104825 | 72 | 180 | 0.0 | 0.0 | 0.00 | 0.34 | 0.03 | 95 | 1032.0 |
| 20260903102827 | 71 | 180 | 0.0 | 0.0 | 0.00 | 0.34 | 0.03 | 95 | 1031.5 |
| 20260903101828 | 71 | 180 | 0.0 | 0.0 | 0.00 | 0.34 | 0.03 | 95 | 1031.2 |
| 20260903100826 | 71 | 292 | 0.0 | 0.0 | 0.00 | 0.34 | 0.03 | 95 | 1031.3 |
| 20260903095825 | 71 | 292 | 0.0 | 0.0 | 0.00 | 0.34 | 0.03 | 95 | 1030.9 |
| 20260903093827 | 71 | 292 | 0.0 | 0.0 | 0.00 | 0.34 | 0.03 | 94 | 1030.7 |
| 20260903092831 | 71 | 292 | 0.0 | 0.0 | 0.00 | 0.34 | 0.03 | 94 | 1030.5 |
| 20260903090928 | 71 | 292 | 0.0 | 0.0 | 0.00 | 0.34 | 0.03 | 94 | 1030.7 |
| 20260903090025 | 71 | 292 | 0.0 | 0.0 | 0.01 | 0.34 | 0.03 | 94 | 1030.8 |
| 20260903085028 | 71 | 292 | 0.0 | 0.0 | 0.01 | 0.34 | 0.03 | 94 | 1030.9 |
| 20260903083127 | 71 | 292 | 0.0 | 0.0 | 0.01 | 0.34 | 0.03 | 94 | 1030.7 |
| 20260903082225 | 71 | 292 | 0.0 | 0.0 | 0.01 | 0.34 | 0.03 | 94 | 1031.1 |
| 20260903081225 | 71 | 292 | 0.0 | 0.0 | 0.01 | 0.34 | 0.03 | 94 | 1031.6 |
| 20260903080325 | 71 | 248 | 0.0 | 0.0 | 0.00 | 0.33 | 0.02 | 94 | 1031.7 |
| 20260903075325 | 71 | 247 | 0.0 | 0.0 | 0.00 | 0.33 | 0.02 | 94 | 1031.9 |
| 20260903074326 | 71 | 247 | 0.0 | 0.0 | 0.00 | 0.33 | 0.02 | 94 | 1032.1 |
| 20260903073326 | 71 | 247 | 0.0 | 0.0 | 0.00 | 0.33 | 0.02 | 94 | 1032.2 |
| 20260903072325 | 71 | 247 | 0.0 | 0.0 | 0.00 | 0.33 | 0.02 | 94 | 1032.3 |
| 20260903071327 | 71 | 292 | 0.0 | 0.0 | 0.01 | 0.33 | 0.02 | 94 | 1032.1 |
| 20260903070327 | 71 | 292 | 1.0 | 2.0 | 0.01 | 0.33 | 0.02 | 94 | 1032.0 |
| 20260903064329 | 71 | 337 | 0.0 | 0.0 | 0.01 | 0.33 | 0.02 | 94 | 1031.7 |
| 20260903063425 | 71 | 337 | 0.0 | 0.0 | 0.01 | 0.33 | 0.02 | 94 | 1031.8 |
| 20260903062525 | 70 | 337 | 0.0 | 0.0 | 0.02 | 0.33 | 0.02 | 94 | 1031.9 |
| 20260903061526 | 70 | 337 | 0.0 | 0.0 | 0.01 | 0.32 | 0.01 | 94 | 1031.9 |
| 20260903060528 | 70 | 337 | 0.0 | 0.0 | 0.01 | 0.32 | 0.01 | 94 | 1032.6 |
| 20260903053626 | 70 | 292 | 0.0 | 0.0 | 0.01 | 0.32 | 0.01 | 94 | 1033.5 |
| 20260903052628 | 70 | 202 | 0.0 | 0.0 | 0.00 | 0.31 | 0.00 | 94 | 1033.5 |
| 20260903051625 | 70 | 202 | 0.0 | 0.0 | 0.00 | 0.31 | 0.00 | 93 | 1033.7 |
| 20260903050624 | 70 | 202 | 0.0 | 0.0 | 0.00 | 0.31 | 0.00 | 93 | 1033.7 |
| 20260903045628 | 70 | 202 | 0.0 | 0.0 | 0.00 | 0.31 | 0.00 | 93 | 1033.6 |
| 20260903044627 | 70 | 202 | 0.0 | 0.0 | 0.00 | 0.31 | 0.00 | 93 | 1033.7 |
| 20260903043725 | 69 | 202 | 0.0 | 0.0 | 0.00 | 0.31 | 0.00 | 93 | 1033.8 |
| 20260903042726 | 69 | 202 | 0.0 | 0.0 | 0.00 | 0.31 | 0.00 | 93 | 1034.0 |
| 20260903041826 | 69 | 270 | 0.0 | 0.0 | 0.00 | 0.31 | 0.00 | 93 | 1034.0 |
| 20260903034912 | 69 | 270 | 0.0 | 0.0 | 0.00 | 0.31 | 0.31 | 93 | 1034.0 |
| 20260903034009 | 69 | 42 | 0.0 | 1.0 | 0.00 | 0.31 | 0.31 | 93 | 1033.9 |
| 20260903033010 | 69 | 67 | 0.0 | 0.0 | 0.00 | 0.31 | 0.31 | 93 | 1033.8 |
| 20260903032011 | 69 | 67 | 0.0 | 0.0 | 0.00 | 0.31 | 0.31 | 93 | 1034.0 |
| 20260903031010 | 69 | 67 | 0.0 | 0.0 | 0.00 | 0.31 | 0.31 | 93 | 1034.3 |
| 20260903030109 | 69 | 67 | 0.0 | 0.0 | 0.00 | 0.31 | 0.31 | 93 | 1034.5 |
| 20260903025110 | 69 | 67 | 0.0 | 0.0 | 0.00 | 0.31 | 0.31 | 93 | 1034.5 |
| 20260903024209 | 69 | 67 | 0.0 | 0.0 | 0.00 | 0.31 | 0.31 | 93 | 1034.5 |
| 20260903023209 | 68 | 90 | 0.0 | 0.0 | 0.00 | 0.31 | 0.31 | 93 | 1034.5 |
| 20260903021210 | 68 | 67 | 0.0 | 2.0 | 0.00 | 0.31 | 0.31 | 93 | 1034.5 |
| 20260903020212 | 68 | 67 | 0.0 | 0.0 | 0.00 | 0.31 | 0.31 | 93 | 1034.6 |
| 20260903015309 | 68 | 67 | 0.0 | 0.0 | 0.00 | 0.31 | 0.31 | 93 | 1035.0 |
| 20260903014409 | 68 | 67 | 0.0 | 0.0 | 0.00 | 0.31 | 0.31 | 93 | 1035.0 |
| 20260903013508 | 68 | 337 | 0.0 | 0.0 | 0.00 | 0.31 | 0.31 | 93 | 1035.0 |
| 20260903012512 | 68 | 67 | 0.0 | 0.0 | 0.00 | 0.31 | 0.31 | 93 | 1035.0 |
| 20260903011511 | 68 | 67 | 0.0 | 0.0 | 0.00 | 0.31 | 0.31 | 93 | 1035.3 |
| 20260903010512 | 68 | 337 | 0.0 | 0.0 | 0.00 | 0.31 | 0.31 | 93 | 1035.5 |
| 20260903005510 | 68 | 337 | 0.0 | 0.0 | 0.00 | 0.31 | 0.31 | 92 | 1036.0 |
| 20260903004509 | 68 | 337 | 0.0 | 0.0 | 0.00 | 0.31 | 0.31 | 92 | 1035.6 |
| 20260903003510 | 68 | 292 | 0.0 | 0.0 | 0.00 | 0.31 | 0.31 | 92 | 1035.3 |
| 20260903002511 | 68 | 180 | 0.0 | 0.0 | 0.00 | 0.31 | 0.31 | 93 | 1034.9 |
| 20260903001509 | 68 | 90 | 1.0 | 2.0 | 0.00 | 0.31 | 0.31 | 93 | 1034.7 |
| 20260903000510 | 68 | 106 | 1.0 | 1.0 | 0.00 | 0.31 | 0.31 | 92 | 1034.6 |
| 20260902235512 | 68 | 315 | 0.0 | 0.0 | 0.00 | 0.31 | 0.31 | 92 | 1034.6 |
| 20260902234510 | 68 | 67 | 0.0 | 0.0 | 0.00 | 0.31 | 0.31 | 93 | 1034.9 |
| 20260902233512 | 68 | 67 | 0.0 | 1.0 | 0.00 | 0.31 | 0.31 | 92 | 1034.9 |
| 20260902231510 | 68 | 112 | 1.0 | 2.0 | 0.00 | 0.31 | 0.31 | 92 | 1035.0 |
| 20260902224513 | 68 | 85 | 1.0 | 3.0 | 0.00 | 0.31 | 0.31 | 92 | 1036.1 |
| 20260902223608 | 68 | 337 | 0.0 | 0.0 | 0.00 | 0.31 | 0.31 | 92 | 1036.1 |
| 20260902222611 | 68 | 90 | 0.0 | 1.0 | 0.00 | 0.31 | 0.31 | 92 | 1036.2 |
| 20260902221710 | 68 | 90 | 0.0 | 1.0 | 0.00 | 0.31 | 0.31 | 92 | 1036.1 |
| 20260902220711 | 68 | 67 | 0.0 | 0.0 | 0.00 | 0.31 | 0.31 | 92 | 1036.0 |
| 20260902214711 | 67 | 337 | 0.0 | 0.0 | 0.00 | 0.31 | 0.31 | 92 | 1036.3 |
| 20260902213808 | 67 | 270 | 0.0 | 0.0 | 0.01 | 0.31 | 0.31 | 92 | 1036.3 |
| 20260902210811 | 67 | 94 | 2.0 | 5.0 | 0.14 | 0.31 | 0.31 | 91 | 1035.2 |
| 20260902205908 | 67 | 91 | 0.0 | 0.0 | 0.20 | 0.31 | 0.31 | 91 | 1035.5 |
| 20260902204913 | 67 | 90 | 0.0 | 2.0 | 0.25 | 0.31 | 0.31 | 91 | 1035.5 |
| 20260902204010 | 67 | 67 | 1.0 | 2.0 | 0.30 | 0.31 | 0.31 | 90 | 1035.8 |
| 20260902203011 | 67 | 112 | 0.0 | 1.0 | 0.28 | 0.28 | 0.28 | 89 | 1036.1 |
| 20260902202012 | 67 | 112 | 0.0 | 0.0 | 0.21 | 0.21 | 0.21 | 89 | 1036.0 |
| 20260902201009 | 68 | 90 | 1.0 | 2.0 | 0.18 | 0.18 | 0.17 | 87 | 1036.0 |
| 20260902200108 | 69 | 180 | 0.0 | 1.0 | 0.13 | 0.13 | 0.13 | 84 | 1036.1 |
| 20260902195109 | 70 | 106 | 1.0 | 2.0 | 0.07 | 0.07 | 0.07 | 80 | 1036.2 |
| 20260902194110 | 71 | 313 | 1.0 | 2.0 | 0.02 | 0.02 | 0.01 | 73 | 1036.6 |
| 20260902193112 | 72 | 95 | 1.0 | 3.0 | 0.00 | 0.00 | 0.00 | 72 | 1036.0 |
| 20260902192112 | 73 | 93 | 2.0 | 4.0 | 0.00 | 0.00 | 0.00 | 71 | 1035.7 |
| 20260902190211 | 73 | 132 | 1.0 | 4.0 | 0.00 | 0.00 | 0.00 | 69 | 1035.8 |
| 20260902185209 | 74 | 68 | 1.0 | 3.0 | 0.00 | 0.00 | 0.00 | 68 | 1035.8 |
| 20260902184210 | 74 | 90 | 0.0 | 1.0 | 0.00 | 0.00 | 0.00 | 67 | 1035.6 |
| 20260902183210 | 74 | 112 | 2.0 | 5.0 | 0.00 | 0.00 | 0.00 | 66 | 1035.8 |
| 20260902182211 | 74 | 102 | 1.0 | 3.0 | 0.00 | 0.00 | 0.00 | 63 | 1035.8 |
| 20260902181211 | 74 | 67 | 1.0 | 4.0 | 0.00 | 0.00 | 0.00 | 63 | 1036.2 |
| 20260902180212 | 74 | 90 | 0.0 | 0.0 | 0.00 | 0.00 | 0.00 | 62 | 1036.4 |
| 20260902175211 | 75 | 90 | 1.0 | 4.0 | 0.00 | 0.00 | 0.00 | 63 | 1036.4 |
| 20260902174208 | 75 | 90 | 0.0 | 0.0 | 0.00 | 0.00 | 0.00 | 63 | 1036.5 |
| 20260902173210 | 74 | 90 | 1.0 | 2.0 | 0.00 | 0.00 | 0.00 | 65 | 1036.3 |
| 20260902172309 | 74 | 90 | 2.0 | 4.0 | 0.00 | 0.00 | 0.00 | 66 | 1036.4 |
| 20260902170310 | 75 | 109 | 1.0 | 5.0 | 0.00 | 0.00 | 0.00 | 69 | 1036.1 |
| 20260902165310 | 74 | 67 | 0.0 | 0.0 | 0.00 | 0.01 | 0.00 | 71 | 1036.2 |
| 20260902164311 | 74 | 67 | 0.0 | 1.0 | 0.00 | 0.01 | 0.00 | 71 | 1036.0 |
| 20260902163409 | 75 | 76 | 2.0 | 4.0 | 0.00 | 0.01 | 0.00 | 71 | 1036.2 |
| 20260902161412 | 75 | 90 | 2.0 | 4.0 | 0.00 | 0.02 | 0.00 | 70 | 1036.3 |
| 20260902160411 | 75 | 112 | 1.0 | 2.0 | 0.00 | 0.03 | 0.00 | 70 | 1036.3 |
| 20260902155412 | 75 | 67 | 0.0 | 2.0 | 0.00 | 0.05 | 0.00 | 70 | 1036.4 |
| 20260902154411 | 76 | 90 | 1.0 | 3.0 | 0.00 | 0.05 | 0.00 | 69 | 1036.5 |
| 20260902152411 | 74 | 90 | 1.0 | 3.0 | 0.00 | 0.05 | 0.00 | 72 | 1036.5 |
| 20260902151509 | 74 | 135 | 1.0 | 2.0 | 0.00 | 0.05 | 0.00 | 72 | 1036.6 |
| 20260902150511 | 74 | 67 | 1.0 | 2.0 | 0.00 | 0.06 | 0.00 | 73 | 1036.6 |
| 20260902145610 | 74 | 90 | 0.0 | 1.0 | 0.00 | 0.10 | 0.00 | 72 | 1036.8 |
| 20260902144611 | 73 | 112 | 0.0 | 0.0 | 0.00 | 0.14 | 0.00 | 75 | 1036.6 |
| 20260902143610 | 72 | 67 | 0.0 | 3.0 | 0.00 | 0.15 | 0.00 | 76 | 1036.4 |
| 20260902142610 | 70 | 58 | 2.0 | 4.0 | 0.00 | 0.15 | 0.00 | 78 | 1036.7 |
| 20260902141611 | 70 | 352 | 0.0 | 0.0 | 0.00 | 0.15 | 0.00 | 78 | 1036.8 |
| 20260902140708 | 70 | 14 | 1.0 | 4.0 | 0.00 | 0.15 | 0.00 | 79 | 1036.7 |
| 20260902135712 | 69 | 30 | 1.0 | 4.0 | 0.00 | 0.15 | 0.00 | 80 | 1036.7 |